Location: Rosenheim
(47.8408°N, 12.2113°E)
Time: 16:02:13
(UTC+02:00)

Tiangong 2 - Visible Passes

Search period start: 24 May 2018 00:00
Search period end: 03 June 2018 00:00
Orbit: 382 x 385 km, 42.8° (Epoch: 24 May)

Date Brightness Start Highest point End Pass type
(mag) Time Alt. Az. Time Alt. Az. Time Alt. Az.
24 May 2.4 21:35:28 10° SW 21:37:59 22° SSE 21:40:32 10° ESE visible
24 May 2.4 23:11:24 10° WSW 23:13:18 26° SW 23:13:18 26° SW visible
25 May 1.9 22:11:46 10° WSW 22:14:36 31° S 22:16:23 18° ESE visible
25 May 3.7 23:48:13 10° WSW 23:48:35 12° WSW 23:48:35 12° WSW visible
26 May 1.9 22:48:26 10° WSW 22:51:15 30° S 22:51:30 30° S visible
27 May 2.0 21:48:42 10° WSW 21:51:34 32° S 21:54:20 11° ESE visible
27 May 3.2 23:25:24 10° WSW 23:26:32 16° SW 23:26:32 16° SW visible
28 May 2.3 22:25:30 10° WSW 22:28:11 26° SSW 22:29:18 21° SSE visible
29 May 3.2 23:02:46 10° WSW 23:04:14 15° SW 23:04:14 15° SW visible
30 May 2.7 22:02:38 10° WSW 22:05:04 21° SSW 22:06:58 13° SSE visible
31 May 3.6 22:40:58 10° SW 22:41:28 10° SSW 22:41:52 10° SSW visible
01 Jun 3.2 21:39:57 10° WSW 21:41:53 15° SSW 21:43:50 10° SSE visible
